Flag for Germany Weather past 2 weeks in Halle, Saxony-Anhalt, Germany

Now
61 °F

Partly sunny.


Feels Like: 61 °F
Forecast: 54 / 66 °F
Wind: 8 mph from Southwest

Location: Leipzig-Schkeuditz

Current Time: Aug 22, 2014 at 10:26:03 AM

Latest Report: Aug 22, 2014 at 9:50 AM


Visibility: N/A

Pressure: 29.98 "Hg

Humidity: 63%

Dew point: 48 °F

Location of HalleLocation

Historic Weather in Halle — Graph

°F

Halle temperature yesterday

Maximum temperature yesterday: 66 °F (at 2:50 PM)
Minimum temperature yesterday: 48 °F (at 4:50 AM)
Average temperature yesterday: 57 °F

Past Weeks' High & Low Weather Summary

 TemperatureHumidityPressure
High84 °F (Aug 10, 3:20 PM)100% (Aug 8, 5:50 AM)30.01 "Hg (Aug 8, 5:50 AM)
Low48 °F (Aug 20, 3:50 AM)31% (Aug 12, 5:20 PM)29.62 "Hg (Aug 13, 6:50 PM)
Average63 °F71%29.88 "Hg
* Reported Aug 7 9:20 AM — Aug 22 9:20 AM, Halle, Weather by CustomWeather, © 2014

Note: Actual official high and low records may vary slightly from our data, if they occured in-between our weather recording intervals... More about our weather records

Advertising

Halle weather history for previous 24 hours

 ConditionsComfort  
Time TempWeatherWind HumidityBarometerVisibility
9:20 AM
Aug 22
59 °FPartly sunny.9 mph68%29.98 "HgN/A
8:50 AM55 °FPartly sunny.7 mph77%29.98 "HgN/A
8:20 AM54 °FBroken clouds.7 mph77%29.95 "HgN/A
7:50 AM52 °FBroken clouds.7 mph82%29.95 "HgN/A
7:20 AM50 °FPartly sunny.6 mph88%29.95 "HgN/A
6:50 AM48 °FPassing clouds.9 mph87%29.95 "HgN/A
6:20 AM48 °FClear.9 mph87%29.95 "Hg10 mi
5:50 AM48 °FClear.7 mph87%29.95 "Hg10 mi
5:20 AM50 °FClear.7 mph82%29.95 "Hg10 mi
4:20 AM52 °FClear.8 mph77%29.98 "Hg10 mi
3:50 AM52 °FClear.7 mph77%29.98 "Hg10 mi
3:20 AM54 °FClear.7 mph77%29.98 "Hg10 mi
2:50 AM54 °FClear.7 mph77%29.98 "Hg10 mi
2:20 AM54 °FClear.8 mph77%29.98 "Hg10 mi
1:50 AM55 °FClear.7 mph72%29.98 "Hg10 mi
1:20 AM55 °FClear.5 mph72%29.98 "Hg10 mi
12:50 AM55 °FClear.6 mph77%29.98 "Hg10 mi
12:20 AM55 °FClear.7 mph67%29.98 "Hg10 mi
11:50 PM
Aug 21
55 °FClear.5 mph67%29.98 "Hg10 mi
11:20 PM54 °FClear.5 mph67%30.01 "Hg10 mi
10:50 PM54 °FClear.5 mph72%30.01 "Hg10 mi
10:20 PM55 °FClear.5 mph67%30.01 "Hg10 mi
9:50 PM55 °FClear.2 mph67%29.98 "Hg10 mi
9:20 PM57 °FSunny.1 mph59%29.98 "Hg10 mi
8:50 PM59 °FSunny.2 mph59%29.98 "Hg10 mi
8:20 PM61 °FSunny.5 mph52%29.98 "Hg10 mi
7:50 PM63 °FSunny.5 mph49%29.98 "Hg10 mi
7:20 PM64 °FSunny.6 mph46%29.98 "Hg10 mi
6:50 PM64 °FSunny.9 mph46%29.98 "Hg10 mi
6:20 PM66 °FSunny.9 mph43%29.98 "Hg10 mi
5:50 PM66 °FSunny.10 mph40%29.98 "Hg10 mi
5:20 PM66 °FSunny.12 mph43%29.98 "Hg10 mi
4:50 PM66 °FSunny.12 mph43%29.98 "Hg10 mi
4:20 PM66 °FSunny.12 mph43%29.98 "Hg10 mi
3:50 PM66 °FScattered clouds.12 mph43%29.98 "HgN/A
3:20 PM64 °FScattered clouds.12 mph49%30.01 "HgN/A
2:50 PM66 °FScattered clouds.12 mph46%30.01 "HgN/A
2:20 PM63 °FScattered clouds.10 mph49%30.01 "HgN/A
1:50 PM64 °FScattered clouds.8 mph52%30.01 "HgN/A
1:20 PM64 °FScattered clouds.12 mph56%30.01 "HgN/A
12:50 PM64 °FScattered clouds.9 mph56%30.01 "HgN/A
12:20 PM63 °FScattered clouds.9 mph56%30.01 "HgN/A
11:50 AM63 °FPassing clouds.7 mph59%30.01 "HgN/A
11:20 AM61 °FPassing clouds.7 mph63%30.01 "HgN/A
10:50 AM59 °FPassing clouds.8 mph68%30.01 "HgN/A
10:20 AM59 °FPassing clouds.9 mph68%30.01 "HgN/A
Weather by CustomWeather, © 2014

See weather overviewHow to use our weather pages